EW5843 Weather Reports


time (UTC)temp
F
wind
direction
speed
knots
gust
knots
rain 1hr
in
rain 24hr
in
rain mn
in
humidity
%
barometer
mb
20260507142519 60 0.0 0.0 0.00 0.00 0.00 84 1014.0
20260507141519 60 0.0 0.0 0.00 0.00 0.00 88 1014.0
20260507140519 59 0.0 0.0 0.00 0.00 0.00 90 1013.9
20260507135519 57 0.0 0.0 0.00 0.00 0.00 95 1013.8
20260507134519 54 0.0 0.0 0.00 0.00 0.00 95 1013.6
20260507133520 54 0.0 0.0 0.00 0.00 0.00 95 1013.7
20260507132539 53 0.0 0.0 0.00 0.00 0.00 94 1013.6
20260507131519 53 0.0 0.0 0.00 0.00 0.00 94 1013.5
20260507130519 53 0.0 0.0 0.00 0.00 0.00 94 1013.4
20260507125519 53 0.0 0.0 0.00 0.00 0.00 94 1013.4
20260507124539 53 0.0 0.0 0.00 0.00 0.00 94 1013.4
20260507123519 54 0.0 0.0 0.00 0.00 0.00 93 1013.3
20260507122519 54 0.0 0.0 0.00 0.00 0.00 93 1013.3
20260507121519 55 0.0 0.0 0.00 0.00 0.00 93 1013.3
20260507120539 55 0.0 0.0 0.00 0.00 0.00 93 1013.3
20260507115519 54 0.0 0.0 0.00 0.00 0.00 92 1013.1
20260507114519 54 0.0 0.0 0.00 0.00 0.00 91 1013.3
20260507113519 54 0.0 0.0 0.00 0.00 0.00 92 1013.3
20260507112519 54 0.0 0.0 0.00 0.00 0.00 91 1013.4
20260507111519 54 0.0 0.0 0.00 0.00 0.00 90 1013.6
20260507110519 54 0.0 0.0 0.00 0.00 0.00 90 1013.6
20260507105519 54 0.0 0.0 0.00 0.00 0.00 90 1013.6
20260507104520 54 0.0 0.0 0.00 0.00 0.00 91 1013.7
20260507103519 55 0.0 0.0 0.00 0.00 0.00 92 1013.8
20260507102519 55 0.0 0.0 0.00 0.00 0.00 93 1013.6
20260507101519 54 0.0 0.0 0.00 0.00 0.00 93 1014.0
20260507100519 55 0.0 0.0 0.00 0.00 0.00 93 1014.0
20260507095559 55 0.0 0.0 0.00 0.00 0.00 93 1014.1
20260507094519 55 0.0 0.0 0.00 0.00 0.00 93 1014.0
20260507093519 55 0.0 0.0 0.00 0.00 0.00 93 1014.0
20260507092519 55 0.0 0.0 0.00 0.00 0.00 93 1014.1
20260507091539 55 0.0 0.0 0.00 0.00 0.00 94 1014.2
20260507090519 55 0.0 0.0 0.00 0.00 0.00 94 1014.4
20260507085519 55 0.0 0.0 0.00 0.00 0.00 94 1014.4
20260507084519 55 0.0 0.0 0.00 0.00 0.00 93 1014.4
20260507083519 55 0.0 0.0 0.00 0.00 0.00 93 1014.6
20260507082520 55 0.0 0.0 0.00 0.00 0.00 93 1014.7
20260507081519 55 0.0 0.0 0.00 0.00 0.00 93 1014.8
20260507080519 56 0.0 0.0 0.00 0.00 0.00 93 1014.6
20260507075519 56 0.0 0.0 0.00 0.00 0.00 93 1014.6
20260507074539 56 0.0 0.0 0.00 0.00 0.00 94 1014.9
20260507073519 55 0.0 0.0 0.00 0.00 0.00 94 1014.9
20260507072519 55 0.0 0.0 0.00 0.00 0.00 93 1015.0
20260507071539 55 0.0 0.0 0.00 0.00 0.00 93 1015.1
20260507070519 55 0.0 0.0 0.00 0.00 0.00 92 1015.1
20260507065520 56 0.0 0.0 0.00 0.00 0.00 92 1015.1
20260507064520 56 0.0 0.0 0.00 0.00 0.00 92 1015.0
20260507063659 57 0.0 0.0 0.00 0.00 0.00 92 1015.0
20260507062520 57 0.0 0.0 0.00 0.00 0.00 91 1014.8
20260507061518 57 0.0 0.0 0.00 0.00 0.00 91 1014.8
20260507060520 57 0.0 0.0 0.00 0.00 0.00 90 1014.9
20260507055520 57 0.0 0.0 0.00 0.00 0.00 91 1015.0
20260507054518 57 0.0 0.0 0.00 0.00 0.00 91 1014.9
20260507053518 57 0.0 0.0 0.00 0.00 0.00 91 1015.1
20260507052540 57 0.0 0.9 0.00 0.00 0.00 90 1014.9
20260507051520 57 0.0 0.9 0.00 0.00 0.00 90 1014.9
20260507050518 57 0.0 0.0 0.00 0.00 0.00 90 1014.8
20260507045520 58 0.0 0.9 0.00 0.00 0.00 89 1014.7
20260507044520 58 0.0 1.7 0.00 0.00 0.00 89 1014.6
20260507043520 58 0.0 0.9 0.00 0.00 0.00 88 1014.9
20260507042520 58 0.0 0.0 0.00 0.00 0.00 88 1014.8
20260507041520 58 0.0 0.0 0.00 0.00 0.00 88 1014.9
20260507040540 58 0.0 0.0 0.00 0.00 0.00 87 1014.8
20260507035518 59 0.0 1.7 0.00 0.00 0.00 87 1014.6
20260507034520 59 113 0.9 2.6 0.00 0.00 0.00 86 1014.4
20260507033540 60 0.0 0.9 0.00 0.00 0.00 86 1014.4
20260507032518 60 135 0.9 1.7 0.00 0.00 0.00 85 1014.3
20260507031540 61 180 0.9 1.7 0.00 0.00 0.00 84 1014.3
20260507030520 61 180 0.9 2.6 0.00 0.00 0.00 82 1014.2
20260507025520 62 158 0.9 1.7 0.00 0.00 0.00 80 1014.1
20260507024518 63 203 0.9 2.6 0.00 0.00 0.00 77 1014.0
20260507023520 63 180 0.9 2.6 0.00 0.00 0.00 74 1013.8
20260507022520 64 158 1.7 3.5 0.00 0.00 0.00 72 1013.7
20260507021518 65 180 1.7 3.5 0.00 0.00 0.00 69 1013.6
20260507020519 66 203 0.9 2.6 0.00 0.00 0.00 65 1013.6
20260507015518 67 203 1.7 4.3 0.00 0.00 0.00 63 1013.5
20260507014520 68 135 1.7 4.3 0.00 0.00 0.00 61 1013.4
20260507013520 69 203 1.7 5.2 0.00 0.00 0.00 59 1013.5
20260507012540 70 158 1.7 5.2 0.00 0.00 0.00 59 1013.4
20260507011520 70 180 1.7 5.2 0.00 0.00 0.00 59 1013.3
20260507010520 70 225 1.7 4.3 0.00 0.00 0.00 60 1013.2
20260507005540 70 158 3.5 6.1 0.00 0.00 0.00 60 1013.2
20260507004519 70 158 2.6 7.0 0.00 0.00 0.00 60 1013.1
20260507003520 71 158 2.6 7.0 0.00 0.00 0.00 58 1013.1
20260507002520 71 203 2.6 7.8 0.00 0.00 0.00 60 1013.1
20260507001520 71 180 3.5 7.0 0.00 0.00 0.00 60 1013.0
20260507000520 72 135 2.6 7.0 0.00 0.00 0.00 59 1012.9
20260506235520 72 203 2.6 7.8 0.00 0.00 0.00 60 1012.9
20260506234540 72 225 2.6 6.1 0.00 0.00 0.00 60 1012.9
20260506233520 72 135 2.6 5.2 0.00 0.00 0.00 60 1012.8
20260506232520 72 158 3.5 7.8 0.00 0.00 0.00 60 1012.8
20260506231540 72 203 3.5 8.7 0.00 0.00 0.00 59 1012.9
20260506230540 73 180 1.7 6.1 0.00 0.00 0.00 59 1013.0
20260506225520 72 248 3.5 10.4 0.00 0.00 0.00 59 1013.1
20260506224520 73 158 3.5 9.6 0.00 0.00 0.00 61 1013.0
20260506223520 72 225 3.5 7.8 0.00 0.00 0.00 62 1013.3
20260506222519 72 203 4.3 9.6 0.00 0.00 0.00 62 1013.4
20260506221701 72 225 3.5 7.8 0.00 0.00 0.00 63 1013.4
20260506220520 72 225 4.3 9.6 0.00 0.00 0.00 62 1013.6
20260506215520 72 203 5.2 11.3 0.00 0.00 0.00 63 1013.5
20260506214520 72 180 4.3 7.8 0.00 0.00 0.00 62 1013.7
20260506213520 72 225 3.5 8.7 0.00 0.00 0.00 62 1013.8
20260506212520 72 248 4.3 7.8 0.00 0.00 0.00 61 1013.9
20260506211520 72 270 4.3 10.4 0.00 0.00 0.00 61 1013.9
20260506210520 73 203 2.6 7.8 0.00 0.00 0.00 61 1014.0
20260506205520 72 248 4.3 8.7 0.00 0.00 0.00 60 1014.0
20260506205408 72 203 3.5 8.7 0.00 0.00 0.00 61 1014.0
20260506191520 73 135 1.7 6.1 0.00 0.00 0.00 52 1015.1
20260506190520 72 158 1.7 5.2 0.00 0.00 0.00 53 1015.2
20260506185520 72 0.0 1.7 0.00 0.00 0.00 53 1015.2
20260506184519 71 225 0.9 3.5 0.00 0.00 0.00 54 1015.3
20260506183540 70 225 1.7 6.1 0.00 0.00 0.00 56 1015.4
20260506182520 70 90 0.9 4.3 0.00 0.00 0.00 57 1015.5
20260506181520 69 338 0.9 5.2 0.00 0.00 0.00 58 1015.6
20260506180519 68 225 0.9 3.5 0.00 0.00 0.00 59 1015.6
20260506175519 68 315 0.9 2.6 0.00 0.00 0.00 58 1015.8
20260506174520 68 225 0.9 4.3 0.00 0.00 0.00 58 1015.8
20260506173520 67 0.0 1.7 0.00 0.00 0.00 60 1015.9
20260506172520 66 225 1.7 4.3 0.00 0.00 0.00 60 1015.9
20260506171519 66 225 0.9 3.5 0.00 0.00 0.00 62 1016.0
20260506170520 66 0.0 2.6 0.00 0.00 0.00 63 1016.0
20260506165520 65 248 0.9 1.7 0.00 0.00 0.00 64 1016.0
20260506164520 64 0.0 0.9 0.00 0.00 0.00 65 1016.0
20260506163520 64 158 1.7 4.3 0.00 0.00 0.00 66 1016.0
20260506162519 64 135 0.9 2.6 0.00 0.00 0.00 67 1016.1
20260506161520 64 225 0.9 2.6 0.00 0.00 0.00 67 1016.1
20260506160519 64 113 0.9 3.5 0.00 0.00 0.00 69 1016.0
20260506155520 62 203 0.9 2.6 0.00 0.00 0.00 73 1015.9
20260506154520 61 113 0.9 2.6 0.00 0.00 0.00 73 1015.9
20260506153519 62 135 0.9 1.7 0.00 0.00 0.00 74 1016.1
20260506152519 62 0.0 0.0 0.00 0.00 0.00 76 1016.0
20260506151520 61 113 0.9 2.6 0.00 0.00 0.00 74 1016.0
20260506150519 61 0.0 0.0 0.00 0.00 0.00 77 1016.0
20260506145540 58 0.0 0.0 0.00 0.00 0.00 82 1016.0
20260506144520 57 23 0.9 1.7 0.00 0.00 0.00 82 1015.9
20260506143519 56 0.0 0.9 0.00 0.00 0.00 82 1015.9